weather.gov     
National Weather Service

Terminal Aerodrome Forecast
NWS Homepage
This page is being discontinued on March 12, 2014.
The same data is available at this site. Please update your bookmarks.
Thank you, and we apologize for the inconvenience.
Please send an email to SR-SRH.Webmaster@noaa.gov with any concerns.


Current Version
Previous Version:    01  02  03  04  05  06  07  08  09  10  11  12  13  14  15  16  17  18  19  20  21  22  23  24  25  26  27  28  29  30  
   31  32  33  34  35  
[Printable]
381
FTUS41 KBTV 202100 AAA
TAFMSS
TAF AMD
KMSS 202123Z 2021/2118 VRB03KT P6SM -SHRA SCT025 OVC040
      TEMPO 2021/2024 BKN025
     FM210000 08005KT P6SM -SHRA SCT025 OVC040
     FM210600 06008KT 5SM -RA BR SCT008 OVC018
     FM211200 04013G21KT 4SM -RA BR OVC008=


U.S. Dept. of Commerce
NOAA National Weather Service
1325 East West Highway
Silver Spring, MD 20910
E-mail: w-nws.webmaster@noaa.gov
Page last modified: May 16, 2007
NATIONAL WEATHER SERVICE: for Safety, for Work, for Fun - FOR LIFE